Regional Weather Roundup
Issued by NWS Green Bay, WI

Home | Current Version | Previous Version | Graphics & Text | Print | Product List | Glossary Off
Versions: 1 2 3 4 5 6 7 8 9 10 11 12 13 14 15 16 17 18 19 20 21 22 23 24 25 26 27 28 29 30 31 32 33 34 35 36 37 38 39 40 41 42 43 44 45 46 47 48 49 50

000
ASUS43 KGRB 241259
RWRGRB

NORTH-CENTRAL AND NORTHEAST WISCONSIN REGIONAL WEATHER ROUNDUP
NATIONAL WEATHER SERVICE GREEN BAY WI
700 AM CST TUE JAN 24 2017

WIZ005-009-010>012-018-019-241400-
NORTH CENTRAL WISCONSIN

CITY           SKY/WX    TMP DP  RH WIND       PRES   REMARKS
IRONWOOD       CLOUDY    33  32  96 CALM      29.84R
MANITOWISH WTR NOT AVBL
ARBOR VITAE    NOT AVBL
EAGLE RIVER    NOT AVBL
LAND O LAKES   NOT AVBL
RHINELANDER    CLOUDY    34  33  96 NW6       29.82R
PHILLIPS       CLOUDY    31  31 100 CALM      29.82S
ANTIGO         NOT AVBL
TOMAHAWK       NOT AVBL
MERRILL        CLOUDY    33  33  99 CALM        N/A
$$

WIZ013-073-241400-
NORTHEAST WISCONSIN

CITY           SKY/WX    TMP DP  RH WIND       PRES   REMARKS
IRON MOUNTAIN  CLOUDY    34  31  88 NW7       29.79S
MARINETTE      NOT AVBL
$$

WIZ017-030-035>037-045-241400-
CENTRAL WISCONSIN

CITY           SKY/WX    TMP DP  RH WIND       PRES   REMARKS
MEDFORD        NOT AVBL
WAUSAU         CLOUDY    33  31  92 NW6       29.82S
MOSINEE        CLOUDY    32  32 100 NW6       29.84S
MARSHFIELD     CLOUDY    33  31  92 NW3       29.84R
WISC RAPIDS    CLOUDY    33  33 100 W5        29.86S
STEVENS POINT  NOT AVBL
WAUPACA        NOT AVBL
SHAWANO        NOT AVBL
CLINTONVILLE   CLOUDY    34  34 100 NW7       29.83S
WAUTOMA        CLOUDY    34  33  96 W5        29.86R
$$

WIZ038-039-048-051-241400-
FOX VALLEY

CITY           SKY/WX    TMP DP  RH WIND       PRES   REMARKS
NWS GREEN BAY  CLOUDY    36  35  96 W6        29.83R
APPLETON       CLOUDY    34  34 100 NW7       29.82R FOG
OSHKOSH        CLOUDY    35  33  92 W5        29.84R FOG
FOND DU LAC    CLOUDY    35  32  88 W8        29.84R
$$

WIZ022-050-052-241400-
EAST CENTRAL WISCONSIN

CITY           SKY/WX    TMP DP  RH WIND       PRES   REMARKS
EPHRAIM        NOT AVBL
WASHINGTON ISL NOT AVBL
STURGEON BAY   FOG       33  33 100 CALM      29.83R VSB 1/2
MANITOWOC      NOT AVBL
SHEBOYGAN      CLOUDY    35  33  92 W7        29.83R FOG
$$

LMZ563-521-522-541>543-241400-
LAKESHORE

STATION/POSITION TIME  TEMP    WIND        PRES    VSBY  WAVE
                       AIR SEA DIR/SP/G                  HT/PER
                 (UTC) (F)     (DEG/KT/KT) (MB)    (MI)  (FT/S)
SHEBOYGAN LKSHOR 1200   36     290/  6/  8 1010.1R
KEWAUNEE LKSHORE 1230   35     300/  2/  5 1009.3S
ALGOMA MARINA    1209             CALM       N/A
NORTHPORT PIER   1240   35     290/  5/  8 1009.5S
MENOMINEE LKSHOR 1230   35     280/  4/  6 1009.1R
$$




USA.gov is the U.S. government's official web portal to all federal, state and local government web resources and services.